Preview of NWS' New Version of Forecast
This preview is not operational and should not be used for support decisions.

Regional Weather Roundup (RWR)

Issued by National Weather Service (NWS)

                            
000
ASUS43 KTOP 250008
RWRKS 

WEATHER ROUNDUP FOR KANSAS
NATIONAL WEATHER SERVICE GOODLAND KS
700 PM CDT SAT AUG 24 2019

NOTE:  "FAIR" INDICATES FEW OR NO CLOUDS BELOW 12,000 FEET WITH NO
SIGNIFICANT WEATHER AND/OR OBSTRUCTIONS TO VISIBILITY.

KSZ001>006-013>018-027>032-041>047-250100-
NORTHWEST KANSAS
  
CITY           SKY/WX    TMP DP  RH WIND       PRES   REMARKS
GOODLAND       MOSUNNY   75  65  70 SE12      29.97S                  
6HR MIN TEMP:  72; 6HR MAX TEMP:  78;                                

HAYS           CLOUDY    77  70  79 SE12      29.77F                  
HILL CITY      CLOUDY    75  67  76 SE8       29.93F THUNDER          
6HR MIN TEMP:  75; 6HR MAX TEMP:  79; 6HR PCP:  0.01;                

RUSSELL        CLOUDY    76  68  76 SE14      29.94R                  
6HR MIN TEMP:  74; 6HR MAX TEMP:  80;                                

$$

KSZ061>065-074>080-084>089-250100-
SOUTHWEST KANSAS
  
CITY           SKY/WX    TMP DP  RH WIND       PRES   REMARKS
DODGE CITY     MOSUNNY   82  65  56 SE13      29.95R                  
6HR MIN TEMP:  79; 6HR MAX TEMP:  86;                                

ELKHART        PTSUNNY   84  69  60 S10       29.94S                  
GARDEN CITY    MOSUNNY   81  64  56 SE17      29.93S                  
6HR MIN TEMP:  75; 6HR MAX TEMP:  85;                                

GREAT BEND     CLOUDY    78  70  76 E10       29.94F                  
LIBERAL        MOSUNNY   81  66  60 S12       29.94S                  
PRATT          PTSUNNY   82  65  55 SE10      29.95R                  
6HR MIN TEMP:  76; 6HR MAX TEMP:  84;                                

$$

KSZ066>073-081>083-090>101-250100-
SOUTHEAST KANSAS
  
CITY           SKY/WX    TMP DP  RH WIND       PRES   REMARKS
CHANUTE        CLOUDY    74  68  81 E8        29.99S                  
6HR MIN TEMP:  74; 6HR MAX TEMP:  80;                                

COFFEYVILLE    CLOUDY    79  72  79 NE12      29.94S                  
6HR MIN TEMP:  79; 6HR MAX TEMP:  85;                                

HUTCHINSON     MOSUNNY   81  69  67 E9        29.94S                  
6HR MIN TEMP:  76; 6HR MAX TEMP:  83;                                

MEDICINE LODGE   N/A     83  68  60 SE8       29.91R                  
NEWTON         CLOUDY    76  70  82 E10       29.97S                  
PARSONS        PTSUNNY   76  71  85 VRB6      29.98S                  
6HR MIN TEMP:  76; 6HR MAX TEMP:  83;                                

WICHITA INTL   MOSUNNY   82  70  66 E12       29.94R                  
6HR MIN TEMP:  77; 6HR MAX TEMP:  84;                                

WICHITA JABRA  MOSUNNY   80  71  74 E7        29.95R                  
6HR MIN TEMP:  75; 6HR MAX TEMP:  82;                                

WICHITA MCCONL SUNNY     82  68  62 E10       29.95S                  
WINFIELD       SUNNY     82  71  69 SE7       29.94S                  
6HR MIN TEMP:  77; 6HR MAX TEMP:  85;                                

$$

KSZ007>012-019>026-033>040-048>060-102>105-250100-
NORTHEAST KANSAS
  
CITY           SKY/WX    TMP DP  RH WIND       PRES   REMARKS
CONCORDIA      CLOUDY    73  68  84 E10G21    29.97F                  
6HR MIN TEMP:  72; 6HR MAX TEMP:  75; 6HR PCP: TRACE;                

EMPORIA        CLOUDY    73  68  84 E14       29.99S                  
6HR MIN TEMP:  71; 6HR MAX TEMP:  78;                                

LAWRENCE       CLOUDY    73  63  70 E7        30.03S                  
6HR MIN TEMP:  73; 6HR MAX TEMP:  78;                                

MANHATTAN      CLOUDY    73  67  81 E9        29.99F                  
6HR MIN TEMP:  72; 6HR MAX TEMP:  76;                                

MARYSVILLE     CLOUDY    70  64  83 SE12      30.01F                  
OLATHE IND     CLOUDY    71  60  68 E12G23    30.04F                  
6HR MIN TEMP:  71; 6HR MAX TEMP:  74;                                

OLATHE EXE     CLOUDY    69  61  75 SE12G22   30.04S                  
6HR MIN TEMP:  69; 6HR MAX TEMP:  73;                                

SALINA         CLOUDY    77  68  73 E10       29.96S                  
6HR MIN TEMP:  76; 6HR MAX TEMP:  80;                                

TOPEKA BILLARD CLOUDY    72  64  76 E10       30.02S                  
6HR MIN TEMP:  71; 6HR MAX TEMP:  74;                                

TOPEKA FORBES  CLOUDY    72  65  78 E10       30.02S                  
6HR MIN TEMP:  72; 6HR MAX TEMP:  75;                                

$$